{"data":{"norad_id":67925,"epoch":"2026-09-19T21:37:37.094592Z","epoch_age_seconds":114953,"freshness":"FRESH","line1":"1 67925U 26036X   26262.90112378  .00019157  00000+0  70347-3 0  9991","line2":"2 67925  43.0018 228.5257 0001381 273.3149  86.7544 15.27598609 33428","mean_motion":15.27598609,"eccentricity":0.0001381,"inclination_deg":43.0018,"raan_deg":228.5257,"arg_perigee_deg":273.3149,"mean_anomaly_deg":86.7544,"bstar":0.00070347,"rev_number":3342,"period_min":94.265600368847,"perigee_km":482.04585246004,"apogee_km":483.94089666949,"semimajor_km":6861.1303745648,"source":"CELESTRAK","updated_at":"2026-09-20T09:00:43.705119Z"}}